Time,TemperatureF,DewpointF,PressureIn,WindDirection,WindDirectionDegrees,WindSpeedMPH,WindSpeedGustMPH,Humidity,HourlyPrecipIn,Conditions,Clouds,dailyrainin,SoftwareType,DateUTC
2017-04-24 00:00:00,58.4,37.1,29.94,SSW,192,0.0,0.0,45,0.00,,,0.00,Wunderground v.1.15,2017-04-24 06:00:00,
2017-04-24 00:05:00,58.2,37.5,29.93,SSW,192,0.0,0.0,46,0.00,,,0.00,Wunderground v.1.15,2017-04-24 06:05:00,
2017-04-24 00:15:00,57.9,37.8,29.94,SSW,192,0.0,0.0,47,0.00,,,0.00,Wunderground v.1.15,2017-04-24 06:15:00,
2017-04-24 00:20:00,57.5,37.4,29.94,SSW,192,0.0,0.0,47,0.00,,,0.00,Wunderground v.1.15,2017-04-24 06:20:00,
2017-04-24 00:30:00,57.4,37.3,29.94,SSW,192,0.0,0.0,47,0.00,,,0.00,Wunderground v.1.15,2017-04-24 06:30:00,
2017-04-24 00:40:00,57.7,37.6,29.93,SSW,192,0.0,0.0,47,0.00,,,0.00,Wunderground v.1.15,2017-04-24 06:40:00,
2017-04-24 00:50:00,57.6,38.6,29.94,SSW,192,0.0,0.0,49,0.00,,,0.00,Wunderground v.1.15,2017-04-24 06:50:00,
2017-04-24 01:00:00,57.7,38.7,29.93,SSW,192,0.0,0.0,49,0.00,,,0.00,Wunderground v.1.15,2017-04-24 07:00:00,
2017-04-24 01:05:00,58.2,38.6,29.93,SSW,192,0.0,0.0,48,0.00,,,0.00,Wunderground v.1.15,2017-04-24 07:05:00,
2017-04-24 01:15:00,58.4,38.2,29.93,SSW,192,0.0,0.0,47,0.00,,,0.00,Wunderground v.1.15,2017-04-24 07:15:00,
2017-04-24 01:20:00,58.3,38.1,29.93,SSW,192,0.0,0.0,47,0.00,,,0.00,Wunderground v.1.15,2017-04-24 07:20:00,
2017-04-24 01:30:00,57.7,38.1,29.93,SSW,192,0.0,0.0,48,0.00,,,0.00,Wunderground v.1.15,2017-04-24 07:30:00,
2017-04-24 01:35:00,57.6,39.1,29.92,SSW,192,0.0,0.0,50,0.00,,,0.00,Wunderground v.1.15,2017-04-24 07:35:00,
2017-04-24 01:45:00,56.9,38.4,29.92,SSW,192,0.0,0.0,50,0.00,,,0.00,Wunderground v.1.15,2017-04-24 07:45:00,
2017-04-24 01:55:00,56.4,38.5,29.92,SSW,192,0.0,0.0,51,0.00,,,0.00,Wunderground v.1.15,2017-04-24 07:55:00,
2017-04-24 02:05:00,56.5,38.1,29.91,SSW,192,0.0,0.0,50,0.00,,,0.00,Wunderground v.1.15,2017-04-24 08:05:00,
2017-04-24 02:15:00,56.6,38.2,29.91,SSW,192,0.0,0.0,50,0.00,,,0.00,Wunderground v.1.15,2017-04-24 08:15:00,
2017-04-24 02:25:00,56.6,38.7,29.92,SSW,192,0.0,0.0,51,0.00,,,0.00,Wunderground v.1.15,2017-04-24 08:25:00,
2017-04-24 02:35:00,56.4,38.0,29.92,SSW,192,0.0,0.0,50,0.00,,,0.00,Wunderground v.1.15,2017-04-24 08:35:00,
2017-04-24 02:40:00,56.4,38.5,29.92,SSW,192,0.0,0.0,51,0.00,,,0.00,Wunderground v.1.15,2017-04-24 08:40:00,
2017-04-24 02:50:00,56.0,38.6,29.92,SSW,192,0.0,0.0,52,0.00,,,0.00,Wunderground v.1.15,2017-04-24 08:50:00,
2017-04-24 02:55:00,56.0,38.6,29.92,SSW,192,0.0,0.0,52,0.00,,,0.00,Wunderground v.1.15,2017-04-24 08:55:00,
2017-04-24 03:05:00,55.8,38.4,29.91,SSW,192,0.0,0.0,52,0.00,,,0.00,Wunderground v.1.15,2017-04-24 09:05:00,
2017-04-24 03:15:00,55.4,39.0,29.92,SSW,192,0.0,0.0,54,0.00,,,0.00,Wunderground v.1.15,2017-04-24 09:15:00,
2017-04-24 03:20:00,54.9,38.6,29.92,SSW,192,0.0,0.0,54,0.00,,,0.00,Wunderground v.1.15,2017-04-24 09:20:00,
2017-04-24 03:30:00,54.7,38.4,29.91,SSW,192,0.0,0.0,54,0.00,,,0.00,Wunderground v.1.15,2017-04-24 09:30:00,
2017-04-24 03:35:00,54.8,38.5,29.92,SSW,192,0.0,0.0,54,0.00,,,0.00,Wunderground v.1.15,2017-04-24 09:35:00,
2017-04-24 03:45:00,54.8,38.9,29.92,SSW,192,0.0,0.0,55,0.00,,,0.00,Wunderground v.1.15,2017-04-24 09:45:00,
2017-04-24 04:05:00,53.3,38.4,29.92,WNW,292,0.0,4.0,57,0.00,,,0.00,Wunderground v.1.15,2017-04-24 10:05:00,
2017-04-24 04:10:00,52.7,38.8,29.92,WNW,296,0.0,0.0,59,0.00,,,0.00,Wunderground v.1.15,2017-04-24 10:10:00,
2017-04-24 04:20:00,52.1,39.1,29.93,WNW,296,0.0,0.0,61,0.00,,,0.00,Wunderground v.1.15,2017-04-24 10:20:00,
2017-04-24 04:25:00,51.8,39.2,29.93,WNW,296,0.0,0.0,62,0.00,,,0.00,Wunderground v.1.15,2017-04-24 10:25:00,
2017-04-24 04:35:00,51.7,39.1,29.93,WNW,297,0.0,0.0,62,0.00,,,0.00,Wunderground v.1.15,2017-04-24 10:35:00,
2017-04-24 04:45:00,52.1,38.6,29.93,West,274,0.0,0.0,60,0.00,,,0.00,Wunderground v.1.15,2017-04-24 10:45:00,
2017-04-24 04:50:00,52.3,38.4,29.93,West,274,0.0,0.0,59,0.00,,,0.00,Wunderground v.1.15,2017-04-24 10:50:00,
2017-04-24 05:00:00,52.4,38.5,29.93,South,173,0.0,0.0,59,0.00,,,0.00,Wunderground v.1.15,2017-04-24 11:00:00,
2017-04-24 05:05:00,52.3,38.4,29.93,South,173,0.0,0.0,59,0.00,,,0.00,Wunderground v.1.15,2017-04-24 11:05:00,
2017-04-24 05:15:00,52.8,38.4,29.93,South,176,0.0,0.0,58,0.00,,,0.00,Wunderground v.1.15,2017-04-24 11:15:00,
2017-04-24 05:25:00,53.4,38.5,29.93,SW,221,0.0,0.0,57,0.00,,,0.00,Wunderground v.1.15,2017-04-24 11:25:00,
2017-04-24 05:30:00,53.4,38.5,29.93,SW,221,0.0,0.0,57,0.00,,,0.00,Wunderground v.1.15,2017-04-24 11:30:00,
2017-04-24 05:40:00,52.6,38.7,29.93,South,186,0.0,0.0,59,0.00,,,0.00,Wunderground v.1.15,2017-04-24 11:40:00,
2017-04-24 05:50:00,52.3,39.2,29.93,SSE,160,0.0,0.0,61,0.00,,,0.00,Wunderground v.1.15,2017-04-24 11:50:00,
2017-04-24 06:00:00,52.1,38.6,29.94,SSE,160,0.0,0.0,60,0.00,,,0.00,Wunderground v.1.15,2017-04-24 12:00:00,
2017-04-24 06:10:00,52.1,38.6,29.94,SSE,167,0.0,0.0,60,0.00,,,0.00,Wunderground v.1.15,2017-04-24 12:10:00,
2017-04-24 06:15:00,52.1,38.6,29.94,South,172,0.0,0.0,60,0.00,,,0.00,Wunderground v.1.15,2017-04-24 12:15:00,
2017-04-24 06:30:00,51.9,37.6,29.96,SW,217,0.0,0.0,58,0.00,,,0.00,Wunderground v.1.15,2017-04-24 12:30:00,
2017-04-24 06:40:00,53.6,36.4,29.96,SW,227,0.0,0.0,52,0.00,,,0.00,Wunderground v.1.15,2017-04-24 12:40:00,
2017-04-24 06:45:00,54.3,36.0,29.96,SW,227,0.0,0.0,50,0.00,,,0.00,Wunderground v.1.15,2017-04-24 12:45:00,
2017-04-24 06:55:00,54.2,37.4,29.97,SSW,206,0.0,0.0,53,0.00,,,0.00,Wunderground v.1.15,2017-04-24 12:55:00,
2017-04-24 07:00:00,54.2,37.9,29.97,SE,135,0.0,0.0,54,0.00,,,0.00,Wunderground v.1.15,2017-04-24 13:00:00,
2017-04-24 07:10:00,53.8,38.0,29.97,SE,138,0.0,0.0,55,0.00,,,0.00,Wunderground v.1.15,2017-04-24 13:10:00,
2017-04-24 07:15:00,53.9,38.1,29.97,SE,138,0.0,0.0,55,0.00,,,0.00,Wunderground v.1.15,2017-04-24 13:15:00,
2017-04-24 07:25:00,55.3,38.0,29.98,SE,138,0.0,0.0,52,0.00,,,0.00,Wunderground v.1.15,2017-04-24 13:25:00,
2017-04-24 07:35:00,57.2,36.6,29.98,SSW,200,0.0,0.0,46,0.00,,,0.00,Wunderground v.1.15,2017-04-24 13:35:00,
2017-04-24 07:45:00,59.0,35.3,29.98,SSW,200,0.0,0.0,41,0.00,,,0.00,Wunderground v.1.15,2017-04-24 13:45:00,
2017-04-24 07:55:00,62.1,35.5,29.99,SSW,200,0.0,0.0,37,0.00,,,0.00,Wunderground v.1.15,2017-04-24 13:55:00,
2017-04-24 08:00:00,63.6,35.4,29.99,SSW,200,0.0,0.0,35,0.00,,,0.00,Wunderground v.1.15,2017-04-24 14:00:00,
2017-04-24 08:10:00,65.3,36.2,29.99,SSW,200,0.0,0.0,34,0.00,,,0.00,Wunderground v.1.15,2017-04-24 14:10:00,
2017-04-24 08:20:00,66.6,35.8,29.99,SSW,200,0.0,0.0,32,0.00,,,0.00,Wunderground v.1.15,2017-04-24 14:20:00,
2017-04-24 08:25:00,67.5,35.0,29.99,SSW,200,0.0,0.0,30,0.00,,,0.00,Wunderground v.1.15,2017-04-24 14:25:00,
2017-04-24 08:35:00,68.1,34.6,29.98,SSW,200,0.0,0.0,29,0.00,,,0.00,Wunderground v.1.15,2017-04-24 14:35:00,
2017-04-24 08:40:00,68.1,34.6,29.98,WNW,296,0.0,0.0,29,0.00,,,0.00,Wunderground v.1.15,2017-04-24 14:40:00,
2017-04-24 08:50:00,69.6,35.9,29.99,West,261,0.0,0.0,29,0.00,,,0.00,Wunderground v.1.15,2017-04-24 14:50:00,
2017-04-24 09:00:00,71.0,36.2,29.98,ESE,121,0.0,2.0,28,0.00,,,0.00,Wunderground v.1.15,2017-04-24 15:00:00,
2017-04-24 09:10:00,70.8,36.1,29.98,SE,141,2.0,2.0,28,0.00,,,0.00,Wunderground v.1.15,2017-04-24 15:10:00,
2017-04-24 09:20:00,71.6,35.8,29.98,ESE,122,1.0,1.0,27,0.00,,,0.00,Wunderground v.1.15,2017-04-24 15:20:00,
2017-04-24 09:30:00,73.8,28.9,29.98,WNW,286,4.0,8.0,19,0.00,,,0.00,Wunderground v.1.15,2017-04-24 15:30:00,
2017-04-24 09:40:00,75.0,29.9,29.98,WNW,300,4.0,7.0,19,0.00,,,0.00,Wunderground v.1.15,2017-04-24 15:40:00,
2017-04-24 09:45:00,75.2,28.8,29.98,WNW,289,5.0,14.0,18,0.00,,,0.00,Wunderground v.1.15,2017-04-24 15:45:00,
2017-04-24 09:55:00,75.5,27.6,29.98,West,276,7.0,10.0,17,0.00,,,0.00,Wunderground v.1.15,2017-04-24 15:55:00,
2017-04-24 10:00:00,75.9,27.9,29.98,WNW,303,6.0,6.0,17,0.00,,,0.00,Wunderground v.1.15,2017-04-24 16:00:00,
2017-04-24 10:10:00,76.7,27.1,29.98,NW,321,5.0,5.0,16,0.00,,,0.00,Wunderground v.1.15,2017-04-24 16:10:00,
2017-04-24 10:20:00,76.8,25.6,29.98,WNW,298,7.0,9.0,15,0.00,,,0.00,Wunderground v.1.15,2017-04-24 16:20:00,
2017-04-24 10:30:00,77.2,27.5,29.98,WSW,249,6.0,6.0,16,0.00,,,0.00,Wunderground v.1.15,2017-04-24 16:30:00,
2017-04-24 10:35:00,77.6,27.8,29.97,West,266,5.0,6.0,16,0.00,,,0.00,Wunderground v.1.15,2017-04-24 16:35:00,
2017-04-24 10:45:00,78.0,26.6,29.97,NW,307,5.0,6.0,15,0.00,,,0.00,Wunderground v.1.15,2017-04-24 16:45:00,
2017-04-24 10:50:00,78.0,26.6,29.97,West,259,5.0,5.0,15,0.00,,,0.00,Wunderground v.1.15,2017-04-24 16:50:00,
2017-04-24 11:00:00,78.7,27.1,29.96,SW,234,6.0,6.0,15,0.00,,,0.00,Wunderground v.1.15,2017-04-24 17:00:00,
2017-04-24 11:05:00,79.0,28.9,29.96,WNW,299,6.0,8.0,16,0.00,,,0.00,Wunderground v.1.15,2017-04-24 17:05:00,
2017-04-24 11:15:00,79.6,26.2,29.95,WNW,292,6.0,6.0,14,0.00,,,0.00,Wunderground v.1.15,2017-04-24 17:15:00,
2017-04-24 11:20:00,79.7,26.3,29.95,NW,317,7.0,7.0,14,0.00,,,0.00,Wunderground v.1.15,2017-04-24 17:20:00,